Tracking 27086 objects as of 22-Mar-2023
HD Live streaming from Space Station
objects crossing your sky now

STARLINK-1862

Track STARLINK-1862 now!
10-day predictions
STARLINK-1862 is classified as:


NORAD ID: 47149
Int'l Code: 2020-088AD
Perigee: 553.3 km
Apogee: 555.4 km
Inclination: 53.1 °
Period: 95.6 minutes
Semi major axis: 6925 km
RCS: Unknown
Launch date: November 25, 2020
Source: United States (US)
Launch site: AIR FORCE EASTERN TEST RANGE (AFETR)
Your satellite tracking list
Your tracking list is empty




NASA's NSSDC Master Catalog

Two Line Element Set (TLE):
1 47149U 20088AD  23080.85312406  .00002665  00000-0  19777-3 0  9998
2 47149  53.0522 127.1498 0001463  89.6026 270.5131 15.06397302129211
Source of the keplerian elements: AFSPC